星链-5794 (STARLINK-5794 )

导读

STARLINK-5794是美国SpaceX公司星链(Starlink)卫星互联网星座项目中的一颗低轨卫星,于2023年3月24日发射升空。星链计划旨在通过部署上万颗低轨卫星,为全球偏远地区等地面网络难覆盖区域提供高速低延迟互联网接入服务,该卫星也为星链星座的全球覆盖能力拓展提供支撑,不过星链大规模卫星部署也引发了太空拥堵等争议。

Basic Information
目录编号:
56006
目录名称:
STARLINK-5794
国际标识:
2023-042W
轨道中心:
EARTH
卫星名称:
星链-5794
卫星全名:
星链-5794 (STARLINK-5794 )
卫星状态:
在轨 (已飞行1260 天)
发射日期:
2023-03-24 UTC
国别 :
美国 (US)
星等 :
--
Orbit Information
数据来源 国际轨道数据 AOE轨道数据
星历时间 2026-09-04T10:07:09+0800
11小时前
查看轨道信息
2026-08-29T23:00:00+0800
5天前
查看轨道信息
半长轴 6861.195km 6861.184km
偏心率 0.000123 0.0001446
轨道倾角 43.004° 43.003°
近地点辐角 269.075° 272.237°
升交点赤经 139.742° 170.597°
平近点角 90.996° 248.439°
近地点 482.214km 482.054km
远地点 483.902km 484.04km
周期 94.267分钟 94.267分钟
每日圈数 15.275773 15.275807
Detailed Information
固有亮度:
5
最大亮度:
2.5
卫星平台:
Starlink v1.5
覆盖范围:
全球
运营商:
太空探索技术公司
运营商所在国:
美国
制造商(研发单位):
太空探索技术公司
制造商所在国:
美国
使用方式:
暂无
Satellite Introduction
星链(Starlink)计划是由太空探索技术公司(SpaceX)提出的一个巨型低轨卫星互联网星座项目,计划在2019年至2024年间在太空搭建由约1.2万颗卫星组成的“星链”网络,其中1584颗将部署在地球上空550千米处的近地轨道,并从2020年开始工作。该卫星仍在工作。
2D Orbit Map
3D Orbit Map
Orbit Altitude Analysis Chart
Orbit Inclination Analysis Chart
Orbit Comprehensive Analysis Chart
View Comprehensive Chart
Conjunction Data List
Event ID Objects TCA Miss Dist (km) Collision Risk Probability Collision Risk Index (CRI) Action
CDM_260828-145105-600606-191721
2026-08-28T
14:51:38+0000
1.050 km
极远距离
1.733651E-5 中风险 0.6
CDM_260906-112905-600606-653821
2026-09-06T
11:29:11+0000
1.231 km
极远距离
1.002456E-5 中风险 0.55
CDM_260906-025105-600606-653821
2026-09-06T
02:51:21+0000
1.938 km
极远距离
2.42732E-6 低风险 0.43
CDM_260906-011705-600606-653821
2026-09-06T
01:17:12+0000
1.963 km
极远距离
2.347923E-6 低风险 0.42
CDM_260828-131705-600606-191721
2026-08-28T
13:17:29+0000
2.620 km
极远距离
1.284458E-6 低风险 0.37